Le nostre stazioni meteo in Italia

Pubblicità
Il mio iltempo24.it
Pantelleria, Italia (16470): Temperatura & dewpoint: 14.02.2017 16:00:00 - 20.02.2017 16:00:00 (CET)Pantelleria, Italia (16470): velocità del vento: 14.02.2017 16:00:00 - 20.02.2017 16:00:00 (CET)Pantelleria, Italia (16470): direzione del vento: 14.02.2017 16:00:00 - 20.02.2017 16:00:00 (CET)Pantelleria, Italia (16470): reduced air pressure: 14.02.2017 16:00:00 - 20.02.2017 16:00:00 (CET)Pantelleria, Italia (16470): visibility: 14.02.2017 16:00:00 - 20.02.2017 16:00:00 (CET)Pantelleria, Italia (16470): ore di luce: 14.02.2017 16:00:00 - 20.02.2017 16:00:00 (CET)
Data & Tempo tt [°C] td [°C] ff [km/h] ff [kn] dd ppp [hPa] vv [km] sd [min]
20.02.2017 16:00:00 12,0 5,6 13 7 NNO 1022,6 20 60
20.02.2017 15:00:00 12,0 5,0 16 9 NNO 1023,0 20 60
20.02.2017 14:00:00 12,6 4,1 16 9 NNO 1023,4 20 60
20.02.2017 13:00:00 12,6 3,5 15 8 NNO 1024,0 20 60
20.02.2017 12:00:00 12,4 5,3 18 10 N 1024,2 20 60
20.02.2017 11:00:00 12,4 6,4 15 8 N 1024,1 20 60
20.02.2017 10:00:00 12,2 6,9 15 8 N 1024,2 20 60
20.02.2017 09:00:00 11,6 7,5 11 6 NNE 1024,1 20 30
20.02.2017 08:00:00 10,4 8,3 13 7 NNE 1023,2 20 0
20.02.2017 07:00:00 10,2 8,1 11 6 NNE 1023,1 15 -
20.02.2017 06:00:00 - - - - - - - -
20.02.2017 05:00:00 - - - - - - - -
20.02.2017 04:00:00 - - - - - - - -
20.02.2017 03:00:00 - - - - - - - -
20.02.2017 02:00:00 - - - - - - - -
20.02.2017 01:00:00 - - - - - - - -
20.02.2017 00:00:00 - - - - - - - -
19.02.2017 23:00:00 - - - - - - - -
19.02.2017 22:00:00 - - - - - - - -
19.02.2017 21:00:00 - - - - - - - -
19.02.2017 20:00:00 - - - - - - - -
19.02.2017 19:00:00 11,2 9,3 16 9 NNO 1021,4 10 0
19.02.2017 18:00:00 11,4 9,3 16 9 N 1021,4 15 0
19.02.2017 17:00:00 12,2 9,6 21 11 NNO 1021,3 20 24
19.02.2017 16:00:00 12,2 9,6 22 12 N 1021,3 10 60
19.02.2017 15:00:00 13,2 9,8 24 13 N 1021,2 15 60
19.02.2017 14:00:00 13,2 9,8 24 13 N 1022,0 15 60
19.02.2017 13:00:00 13,2 9,8 22 12 N 1022,1 15 60
19.02.2017 12:00:00 13,0 9,6 22 12 N 1022,0 15 60
19.02.2017 11:00:00 12,6 9,2 21 11 N 1022,0 15 60
19.02.2017 10:00:00 12,0 9,0 21 11 NNE 1022,1 15 60
19.02.2017 09:00:00 11,4 8,4 18 10 NNE 1021,3 15 0
19.02.2017 08:00:00 10,6 8,4 18 10 N 1020,5 15 0
19.02.2017 07:00:00 11,0 9,1 16 9 N 1020,2 15 -
19.02.2017 06:00:00 - - - - - - - -
19.02.2017 05:00:00 - - - - - - - -
19.02.2017 04:00:00 - - - - - - - -
19.02.2017 03:00:00 - - - - - - - -
19.02.2017 02:00:00 - - - - - - - -
19.02.2017 01:00:00 - - - - - - - -
19.02.2017 00:00:00 - - - - - - - -
18.02.2017 23:00:00 - - - - - - - -
18.02.2017 22:00:00 - - - - - - - -
18.02.2017 21:00:00 - - - - - - - -
18.02.2017 20:00:00 - - - - - - - -
18.02.2017 19:00:00 11,2 10,0 0 0 N 1020,7 8 0
18.02.2017 18:00:00 12,0 10,9 0 0 N 1020,7 8 0
18.02.2017 17:00:00 12,0 11,1 4 2 N 1020,7 10 0
18.02.2017 16:00:00 12,0 11,7 0 0 N 1020,7 10 0
18.02.2017 15:00:00 12,4 11,3 4 2 NNO 1020,8 10 0
18.02.2017 14:00:00 12,6 10,8 8 4 ONO 1021,2 10 0
18.02.2017 13:00:00 13,0 11,1 5 3 NNO 1021,7 10 0
18.02.2017 12:00:00 13,0 11,1 13 7 NNO 1022,3 12 0
18.02.2017 11:00:00 14,6 10,0 5 3 ONO 1022,4 10 30
18.02.2017 10:00:00 13,4 9,7 5 3 SSE 1022,6 10 12
18.02.2017 09:00:00 12,4 11,3 0 0 N 1022,6 10 0
18.02.2017 08:00:00 11,8 10,0 0 0 N 1022,7 10 0
18.02.2017 07:00:00 11,8 10,0 0 0 N 1022,7 10 0
18.02.2017 06:00:00 - - - - - - - -
18.02.2017 05:00:00 - - - - - - - -
18.02.2017 04:00:00 - - - - - - - -
18.02.2017 03:00:00 - - - - - - - -
18.02.2017 02:00:00 - - - - - - - -
18.02.2017 01:00:00 - - - - - - - -
18.02.2017 00:00:00 - - - - - - - -
17.02.2017 23:00:00 - - - - - - - -
17.02.2017 22:00:00 - - - - - - - -
17.02.2017 21:00:00 - - - - - - - -
17.02.2017 20:00:00 - - - - - - - -
17.02.2017 19:00:00 11,2 8,8 5 3 SE 1026,0 10 0
17.02.2017 18:00:00 11,2 8,2 8 4 S 1026,3 10 0
17.02.2017 17:00:00 12,4 8,5 9 5 S 1026,4 10 0
17.02.2017 16:00:00 12,8 8,5 9 5 S 1026,9 10 0
17.02.2017 15:00:00 13,0 8,3 11 6 SSO 1027,5 10 30
17.02.2017 14:00:00 12,8 8,1 11 6 S 1027,8 10 30
17.02.2017 13:00:00 13,2 8,1 8 4 SSO 1028,8 10 42
17.02.2017 12:00:00 13,0 8,5 11 6 S 1029,3 10 6
17.02.2017 11:00:00 12,4 8,1 8 4 S 1029,8 10 0
17.02.2017 10:00:00 12,0 8,1 9 5 S 1029,7 10 0
17.02.2017 09:00:00 11,4 8,2 0 0 N 1029,8 10 36
17.02.2017 08:00:00 9,8 7,9 0 0 N 1029,9 10 0
17.02.2017 07:00:00 9,0 7,4 0 0 N 1030,1 10 0
17.02.2017 06:00:00 - - - - - - - -
17.02.2017 05:00:00 - - - - - - - -
17.02.2017 04:00:00 - - - - - - - -
17.02.2017 03:00:00 - - - - - - - -
17.02.2017 02:00:00 - - - - - - - -
17.02.2017 01:00:00 - - - - - - - -
17.02.2017 00:00:00 - - - - - - - -
16.02.2017 23:00:00 - - - - - - - -
16.02.2017 22:00:00 - - - - - - - -
16.02.2017 21:00:00 - - - - - - - -
16.02.2017 20:00:00 - - - - - - - -
16.02.2017 19:00:00 10,6 8,2 0 0 N 1031,4 20 -
16.02.2017 18:00:00 12,4 8,5 0 0 N 1031,4 20 30
16.02.2017 17:00:00 12,4 8,5 4 2 E 1031,6 20 48
16.02.2017 16:00:00 12,2 8,3 4 2 NNE 1031,9 20 0
16.02.2017 15:00:00 12,4 7,9 4 2 NE 1032,0 20 6
16.02.2017 14:00:00 12,6 7,9 2 1 N 1032,3 15 60
16.02.2017 13:00:00 12,8 7,9 8 4 NNE 1033,2 20 60
16.02.2017 12:00:00 13,0 8,1 9 5 ENE 1033,2 20 60
16.02.2017 11:00:00 13,0 8,1 9 5 ENE 1033,2 20 60
16.02.2017 10:00:00 12,8 7,9 9 5 ENE 1033,2 20 60
16.02.2017 09:00:00 12,4 8,1 8 4 NNE 1033,2 15 18
16.02.2017 08:00:00 10,4 7,5 4 2 E 1033,1 15 0
16.02.2017 07:00:00 10,2 8,3 0 0 N 1033,1 10 0
16.02.2017 06:00:00 - - - - - - - -
16.02.2017 05:00:00 - - - - - - - -
16.02.2017 04:00:00 - - - - - - - -
16.02.2017 03:00:00 - - - - - - - -
16.02.2017 02:00:00 - - - - - - - -
16.02.2017 01:00:00 - - - - - - - -
16.02.2017 00:00:00 - - - - - - - -
15.02.2017 23:00:00 - - - - - - - -
15.02.2017 22:00:00 - - - - - - - -
15.02.2017 21:00:00 - - - - - - - -
15.02.2017 20:00:00 - - - - - - - -
15.02.2017 19:00:00 10,6 6,7 4 2 S 1032,5 20 -
15.02.2017 18:00:00 11,4 6,5 5 3 ESE 1032,5 20 0
15.02.2017 17:00:00 13,0 8,3 13 7 ESE 1032,4 20 60
15.02.2017 16:00:00 14,0 8,6 15 8 ESE 1032,3 20 60
15.02.2017 15:00:00 13,6 8,7 16 9 E 1032,6 20 60
15.02.2017 14:00:00 13,8 9,2 18 10 E 1032,8 15 60
15.02.2017 13:00:00 13,6 8,9 18 10 E 1033,2 15 60
15.02.2017 12:00:00 13,6 8,9 18 10 E 1033,7 15 60
15.02.2017 11:00:00 13,8 9,0 21 11 E 1033,6 15 60
15.02.2017 10:00:00 13,8 9,0 18 10 ESE 1033,1 15 42
15.02.2017 09:00:00 13,0 8,3 18 10 E 1032,2 15 0
15.02.2017 08:00:00 11,4 6,9 9 5 ESE 1032,3 10 0
15.02.2017 07:00:00 11,4 6,9 9 5 E 1032,3 10 0
15.02.2017 06:00:00 - - - - - - - -
15.02.2017 05:00:00 - - - - - - - -
15.02.2017 04:00:00 - - - - - - - -
15.02.2017 03:00:00 - - - - - - - -
15.02.2017 02:00:00 - - - - - - - -
15.02.2017 01:00:00 - - - - - - - -
15.02.2017 00:00:00 - - - - - - - -
14.02.2017 23:00:00 - - - - - - - -
14.02.2017 22:00:00 - - - - - - - -
14.02.2017 21:00:00 - - - - - - - -
14.02.2017 20:00:00 - - - - - - - -
14.02.2017 19:00:00 12,8 8,5 18 10 E 1028,0 10 0
14.02.2017 18:00:00 13,0 8,7 18 10 ESE 1027,6 10 0
14.02.2017 17:00:00 14,0 9,7 21 11 E 1026,8 15 60
14.02.2017 16:00:00 14,0 9,7 21 11 ESE 1026,7 20 60

tt = Temperatura
td = dewpoint
ff = velocità del vento
dd = direzione del vento
ppp = reduced air pressure
vv = visibility
sd = ore di luce

Stazioni seguenti

WeatherPro
AMSI
MeteoEarth